Location: Newark
(45.7425°N, 0.7617°W)
Time: 01:49:31
(UTC+00:00)

N. Korean satellite - Pass Details

Date: 28 January 2020
Orbit: 456 x 505 km, 97.2° (Epoch: 26 February)

Event Time Altitude Azimuth Distance (km) Brightness Sun altitude
Rises 05:59:32 0° 11° (N) 2,548 10.2 -15.8°
Reaches altitude 10° 06:01:36 10° 11° (N) 1,672 9.3 -15.4°
Maximum altitude 06:05:12 82° 284° (WNW) 499 6.4 -14.8°
Drops below altitude 10° 06:08:49 10° 196° (SSW) 1,685 9.3 -14.2°
Sets 06:10:54 0° 196° (SSW) 2,569 10.2 -13.9°
